Location: Carr
(35.6904°N, 90.5179°W)
Time: 10:52:41
(UTC+00:00)

HTV-X1 - Visible Passes

Search period start: 11 June 2026 00:00
Search period end: 21 June 2026 00:00
Orbit: 368 x 378 km, 51.6° (Epoch: 26 May)

Date Brightness Start Highest point End Pass type
(mag) Time Alt. Az. Time Alt. Az. Time Alt. Az.
17 Jun ? 09:20:44 10° SSE 09:22:06 12° SE 09:23:29 10° E visible
18 Jun ? 09:51:35 14° SSW 09:54:01 58° SE 09:57:02 10° NE visible
19 Jun ? 08:50:36 19° SE 08:50:39 19° SE 08:52:54 10° E visible
20 Jun ? 09:21:26 35° SW 09:22:33 85° NW 09:25:36 10° NE visible
